Flag for Germany Weather past 2 weeks in Freiberg, Saxony, Germany

Now
72 °F

Clear.


Feels Like: 77 °F
Forecast: 57 / 82 °F
Wind: 7 mph from South

Location: Dresden-Klotzsche

Current Time: Aug 2, 2015 at 11:31:39 PM

Latest Report: Aug 2, 2015 at 10:50 PM


Visibility: 10 mi

Pressure: 30.12 "Hg

Humidity: 53%

Dew point: 54 °F

Location of FreibergLocation

Historic Weather in Freiberg — Graph

°F

Freiberg temperature yesterday

Maximum temperature yesterday: 79 °F (at 5:20 PM)
Minimum temperature yesterday: 50 °F (at 3:50 AM)
Average temperature yesterday: 66 °F

Past Weeks' High & Low Weather Summary

 TemperatureHumidityPressure
High91 °F (Jul 22, 2:50 PM)100% (Jul 19, 8:20 PM)30.12 "Hg (Jul 19, 8:20 PM)
Low50 °F (Jul 31, 4:20 AM)24% (Aug 1, 2:50 PM)29.59 "Hg (Jul 27, 2:50 PM)
Average67 °F61%29.89 "Hg
* Reported Jul 18 10:20 PM — Aug 2 10:20 PM, Freiberg, Weather by CustomWeather, © 2015

Note: Actual official high and low records may vary slightly from our data, if they occured in-between our weather recording intervals... More about our weather records

Advertising

Freiberg weather history for previous 24 hours

 ConditionsComfort  
Time TempWeatherWind HumidityBarometerVisibility
10:20 PM
Sun, Aug 2
72 °FClear.9 mph53%30.12 "Hg10 mi
9:50 PM73 °FClear.8 mph50%30.12 "Hg10 mi
9:20 PM73 °FSunny.8 mph50%30.09 "Hg10 mi
8:50 PM75 °FSunny.9 mph44%30.09 "Hg10 mi
8:20 PM77 °FSunny.3 mph42%30.09 "Hg10 mi
7:50 PM79 °FSunny.2 mph39%30.09 "Hg10 mi
7:20 PM81 °FSunny.1 mph32%30.09 "Hg10 mi
6:50 PM81 °FSunny.3 mph32%30.07 "Hg10 mi
6:20 PM82 °FSunny.3 mph30%30.07 "Hg10 mi
5:50 PM82 °FSunny.5 mph30%30.09 "Hg10 mi
5:20 PM82 °FPassing clouds.6 mph30%30.09 "HgN/A
4:50 PM82 °FPassing clouds.7 mph30%30.09 "HgN/A
4:20 PM81 °FPassing clouds.5 mph30%30.09 "HgN/A
3:50 PM81 °FPassing clouds.6 mph30%30.09 "HgN/A
3:20 PM82 °FSunny.5 mph30%30.09 "Hg10 mi
2:50 PM81 °FSunny.2 mph30%30.09 "Hg10 mi
2:20 PM81 °FSunny.5 mph30%30.12 "Hg10 mi
1:50 PM81 °FPassing clouds.8 mph32%30.12 "HgN/A
1:20 PM79 °FSunny.2 mph34%30.12 "Hg10 mi
12:50 PM77 °FSunny.3 mph39%30.12 "Hg10 mi
12:20 PM77 °FSunny.5 mph36%30.12 "Hg10 mi
11:50 AM73 °FSunny.3 mph47%30.09 "Hg10 mi
11:20 AM72 °FSunny.2 mph50%30.12 "Hg10 mi
10:50 AM72 °FSunny.2 mph50%30.09 "Hg10 mi
10:20 AM70 °FSunny.2 mph53%30.09 "Hg10 mi
9:50 AM70 °FPassing clouds.3 mph53%30.09 "HgN/A
9:20 AM68 °FPassing clouds.5 mph56%30.09 "HgN/A
8:50 AM68 °FPassing clouds.3 mph60%30.07 "HgN/A
8:20 AM64 °FPassing clouds.3 mph73%30.07 "HgN/A
7:50 AM64 °FSunny.5 mph68%30.07 "Hg10 mi
7:20 AM63 °FSunny.6 mph73%30.07 "Hg10 mi
6:50 AM63 °FSunny.2 mph73%30.07 "Hg10 mi
6:20 AM64 °FClear.2 mph64%30.04 "Hg10 mi
5:50 AM63 °FClear.1 mph68%30.04 "Hg10 mi
5:20 AM64 °FPassing clouds.3 mph64%30.04 "HgN/A
4:50 AM64 °FClear.3 mph64%30.04 "Hg10 mi
4:20 AM64 °FPassing clouds.3 mph64%30.01 "HgN/A
3:50 AM64 °FClear.5 mph64%30.01 "Hg10 mi
3:20 AM64 °FClear.2 mph64%30.01 "Hg10 mi
2:50 AM66 °FClear.3 mph60%30.01 "Hg10 mi
2:20 AM66 °FClear.2 mph60%30.01 "Hg10 mi
1:20 AM68 °FClear.3 mph49%30.01 "Hg10 mi
12:50 AM68 °FClear.6 mph49%30.01 "Hg10 mi
11:20 PM
Sat, Aug 1
70 °FClear.1 mph46%30.01 "Hg10 mi
Weather by CustomWeather, © 2015

See weather overviewHow to use our weather pages